Location: Dana
(41.8364°N, 106.7042°W)
Time: 14:26:58
(UTC+00:00)

SR - Pass Details

Date: 16 May 2026
Orbit: 567 x 853 km, 66.7° (Epoch: 7 June)

Event Time Altitude Azimuth Distance (km) Brightness Sun altitude
Rises 22:15:19 0° 332° (NNW) 3,376 ? 43.7°
Reaches altitude 10° 22:17:48 10° 337° (NNW) 2,461 ? 43.2°
Maximum altitude 22:23:27 57° 56° (NE) 1,001 ? 42.2°
Drops below altitude 10° 22:29:06 10° 134° (SE) 2,465 ? 41.2°
Sets 22:31:36 0° 139° (SE) 3,381 ? 40.7°
